timestamp,surface_pressure_avg,surface_temp_avg,battery_voltage,lat,long
2018-12-27 00:00:00+00:00,273.5747,3.09,12.97,47.84626,-54.09684
2018-12-27 00:10:00+00:00,279.6031,3.0,12.97,47.84626,-54.09684
2018-12-27 00:20:00+00:00,285.8531,3.0,13.05,47.84626,-54.09684
2018-12-27 00:30:00+00:00,290.9781,3.0,13.05,47.84626,-54.09684
2018-12-27 00:40:00+00:00,297.908,3.0,13.05,47.84626,-54.09684
2018-12-27 00:50:00+00:00,306.2663,2.96,13.05,47.84626,-54.09684
2018-12-27 01:00:00+00:00,313.048,2.9,12.97,47.84626,-54.09684
2018-12-27 01:10:00+00:00,319.5997,2.9,12.89,47.84626,-54.09684
2018-12-27 01:20:00+00:00,327.8046,2.9,12.97,47.84626,-54.09684
2018-12-27 01:30:00+00:00,334.4496,2.9,12.97,47.84626,-54.09684
2018-12-27 01:40:00+00:00,337.933,2.86,13.05,47.84626,-54.09684
2018-12-27 01:50:00+00:00,344.323,2.83,13.05,47.84626,-54.09684
2018-12-27 02:00:00+00:00,350.2146,2.8,12.97,47.84626,-54.09684
2018-12-27 02:10:00+00:00,352.5846,2.85,12.89,47.84626,-54.09684
2018-12-27 02:20:00+00:00,356.9763,2.9,12.97,47.84626,-54.09684
2018-12-27 02:30:00+00:00,363.243,3.07,12.97,47.84626,-54.09684
2018-12-27 02:40:00+00:00,364.5896,3.1,13.05,47.84626,-54.09684
2018-12-27 02:50:00+00:00,364.5746,3.1,13.05,47.84626,-54.09684
2018-12-27 03:00:00+00:00,365.7278,2.92,12.97,47.84626,-54.09684
2018-12-27 03:10:00+00:00,368.4929,2.9,12.89,47.84626,-54.09684
2018-12-27 03:20:00+00:00,367.2664,2.9,12.97,47.84626,-54.09684
2018-12-27 03:30:00+00:00,366.1746,2.92,12.97,47.84626,-54.09684
2018-12-27 03:40:00+00:00,365.9246,2.9,12.97,47.84626,-54.09684
2018-12-27 03:50:00+00:00,365.2312,2.9,13.05,47.84626,-54.09684
2018-12-27 04:00:00+00:00,361.1847,2.9,12.97,47.84626,-54.09684
2018-12-27 04:10:00+00:00,356.2946,2.9,12.89,47.84626,-54.09684
2018-12-27 04:20:00+00:00,353.5146,2.89,12.97,47.84626,-54.09684
2018-12-27 04:30:00+00:00,350.2213,2.84,12.97,47.84626,-54.09684
2018-12-27 04:40:00+00:00,344.5762,2.8,12.97,47.84626,-54.09684
2018-12-27 04:50:00+00:00,338.3246,2.8,12.97,47.84626,-54.09684
2018-12-27 05:00:00+00:00,329.3796,2.8,12.89,47.84626,-54.09684
2018-12-27 05:10:00+00:00,320.5696,2.8,12.81,47.84626,-54.09684
2018-12-27 05:20:00+00:00,313.498,2.8,12.97,47.84626,-54.09684
2018-12-27 05:30:00+00:00,306.6996,2.8,12.97,47.84626,-54.09684
2018-12-27 05:40:00+00:00,296.7731,2.8,12.97,47.84626,-54.09684
2018-12-27 05:50:00+00:00,287.7864,2.79,12.97,47.84626,-54.09684
2018-12-27 06:00:00+00:00,281.0231,2.79,12.89,47.84626,-54.09684
2018-12-27 06:10:00+00:00,272.6964,2.78,12.81,47.84626,-54.09684
2018-12-27 06:20:00+00:00,263.1514,2.79,12.97,47.84626,-54.09684
2018-12-27 06:30:00+00:00,255.993,2.79,12.97,47.84626,-54.09684
2018-12-27 06:40:00+00:00,248.1564,2.78,12.97,47.84626,-54.09684
2018-12-27 06:50:00+00:00,238.3398,2.7,12.97,47.84626,-54.09684
2018-12-27 07:00:00+00:00,229.8148,2.7,12.89,47.84626,-54.09684
2018-12-27 07:10:00+00:00,223.8931,2.7,12.81,47.84626,-54.09684
2018-12-27 07:20:00+00:00,216.9797,2.7,12.97,47.84626,-54.09684
2018-12-27 07:30:00+00:00,212.3498,2.7,12.97,47.84626,-54.09684
2018-12-27 07:40:00+00:00,210.4331,2.74,12.97,47.84626,-54.09684
2018-12-27 07:50:00+00:00,208.1498,2.76,12.97,47.84626,-54.09684
2018-12-27 08:00:00+00:00,207.0697,2.79,12.89,47.84626,-54.09684
2018-12-27 08:10:00+00:00,208.6914,2.8,12.81,47.84626,-54.09684
2018-12-27 08:20:00+00:00,207.7964,2.9,12.97,47.84626,-54.09684
2018-12-27 08:30:00+00:00,206.5214,2.9,12.97,47.84626,-54.09684
2018-12-27 08:40:00+00:00,209.6098,2.9,12.97,47.84626,-54.09684
2018-12-27 08:50:00+00:00,213.6981,2.92,12.97,47.84626,-54.09684
2018-12-27 09:00:00+00:00,214.2715,2.98,12.89,47.84626,-54.09684
2018-12-27 09:10:00+00:00,215.2831,3.0,12.81,47.84626,-54.09684
2018-12-27 09:20:00+00:00,220.9598,3.0,12.89,47.84626,-54.09684
2018-12-27 09:30:00+00:00,226.1747,3.0,12.97,47.84626,-54.09684
2018-12-27 09:40:00+00:00,230.0915,3.0,12.97,47.84626,-54.09684
2018-12-27 09:50:00+00:00,233.0948,2.9,12.97,47.84626,-54.09684
2018-12-27 10:00:00+00:00,237.1197,2.8,12.89,47.84626,-54.09684
2018-12-27 10:10:00+00:00,241.2314,2.7,12.81,47.84626,-54.09684
2018-12-27 10:20:00+00:00,245.2148,2.69,12.89,47.84626,-54.09684
2018-12-27 10:30:00+00:00,247.8714,2.7,12.89,47.84626,-54.09684
2018-12-27 10:40:00+00:00,251.1314,2.73,12.97,47.84626,-54.09684
2018-12-27 10:50:00+00:00,255.7031,2.79,12.97,47.84626,-54.09684
2018-12-27 11:00:00+00:00,260.333,2.8,12.89,47.84626,-54.09684
2018-12-27 11:10:00+00:00,263.8548,2.83,12.81,47.84626,-54.09684
2018-12-27 11:20:00+00:00,268.4281,2.88,12.89,47.84626,-54.09684
2018-12-27 11:30:00+00:00,273.6314,2.9,12.89,47.84626,-54.09684
2018-12-27 11:40:00+00:00,279.0247,2.9,12.97,47.84626,-54.09684
2018-12-27 11:50:00+00:00,283.4614,2.9,12.97,47.84626,-54.09684
2018-12-27 12:00:00+00:00,289.443,2.9,12.89,47.84626,-54.09684
2018-12-27 12:10:00+00:00,295.7797,2.9,12.81,47.84626,-54.09684
2018-12-27 12:20:00+00:00,301.8264,2.9,12.97,47.84626,-54.09684
2018-12-27 12:30:00+00:00,305.9696,2.9,12.97,47.84626,-54.09684
2018-12-27 12:40:00+00:00,312.4064,2.9,13.05,47.84626,-54.09684
2018-12-27 12:50:00+00:00,318.6979,2.9,15.67,47.84626,-54.09684
2018-12-27 13:00:00+00:00,327.538,2.9,16.55,47.84626,-54.09684
2018-12-27 13:10:00+00:00,336.473,2.9,15.04,47.84626,-54.09684
2018-12-27 13:20:00+00:00,343.8662,2.97,15.83,47.84626,-54.09684
2018-12-27 13:30:00+00:00,350.718,3.0,14.56,47.84626,-54.09684
2018-12-27 13:40:00+00:00,359.8696,3.0,14.32,47.84626,-54.09684
2018-12-27 13:50:00+00:00,368.0829,3.0,14.32,47.84626,-54.09684
2018-12-27 14:00:00+00:00,372.0513,3.0,14.24,47.84626,-54.09684
2018-12-27 14:10:00+00:00,376.2879,3.0,15.51,47.84626,-54.09684
2018-12-27 14:20:00+00:00,382.1413,3.0,14.64,47.84626,-54.09684
2018-12-27 14:30:00+00:00,386.343,3.0,16.55,47.84626,-54.09684
2018-12-27 14:40:00+00:00,388.5079,2.99,15.04,47.84626,-54.09684
2018-12-27 14:50:00+00:00,391.1478,2.9,17.11,47.84626,-54.09684
2018-12-27 15:00:00+00:00,394.108,2.9,16.07,47.84626,-54.09684
2018-12-27 15:10:00+00:00,394.3995,2.9,15.51,47.84626,-54.09684
2018-12-27 15:20:00+00:00,395.4796,2.9,14.96,47.84626,-54.09684
2018-12-27 15:30:00+00:00,397.4763,2.9,15.04,47.84626,-54.09684
2018-12-27 15:40:00+00:00,397.1462,2.9,14.8,47.84626,-54.09684
2018-12-27 15:50:00+00:00,394.7462,2.91,14.72,47.84626,-54.09684
2018-12-27 16:00:00+00:00,390.8479,2.94,14.56,47.84626,-54.09684
2018-12-27 16:10:00+00:00,390.5696,2.92,14.56,47.84626,-54.09684
2018-12-27 16:20:00+00:00,388.9529,2.95,14.64,47.84626,-54.09684
2018-12-27 16:30:00+00:00,383.6028,2.99,14.72,47.84626,-54.09684
2018-12-27 16:40:00+00:00,378.9197,2.99,14.72,47.84626,-54.09684
2018-12-27 16:50:00+00:00,375.3746,3.0,14.72,47.84626,-54.09684
2018-12-27 17:00:00+00:00,371.6879,3.0,14.72,47.84626,-54.09684
2018-12-27 17:10:00+00:00,364.5396,2.98,14.48,47.84626,-54.09684
2018-12-27 17:20:00+00:00,356.9164,2.92,14.56,47.84626,-54.09684
2018-12-27 17:30:00+00:00,349.1863,2.93,14.48,47.84626,-54.09684
2018-12-27 17:40:00+00:00,341.113,2.8,14.48,47.84626,-54.09684
2018-12-27 17:50:00+00:00,331.6113,2.5,14.48,47.84626,-54.09684
2018-12-27 18:00:00+00:00,322.5797,2.4,14.32,47.84626,-54.09684
2018-12-27 18:10:00+00:00,313.048,2.29,14.24,47.84626,-54.09684
2018-12-27 18:20:00+00:00,300.6713,2.1,14.32,47.84626,-54.09684
2018-12-27 18:30:00+00:00,290.858,2.08,14.32,47.84626,-54.09684
2018-12-27 18:40:00+00:00,282.828,2.09,14.32,47.84626,-54.09684
2018-12-27 18:50:00+00:00,272.1781,2.25,14.32,47.84626,-54.09684
2018-12-27 19:00:00+00:00,257.1964,2.5,14.24,47.84626,-54.09684
2018-12-27 19:10:00+00:00,248.3548,2.4,14.0,47.84626,-54.09684
2018-12-27 19:20:00+00:00,241.6531,2.2,14.0,47.84626,-54.09684
2018-12-27 19:30:00+00:00,231.7847,2.2,13.92,47.84626,-54.09684
2018-12-27 19:40:00+00:00,223.5714,1.95,13.84,47.84626,-54.09684
2018-12-27 19:50:00+00:00,219.2564,1.58,13.76,47.84626,-54.09684
2018-12-27 20:00:00+00:00,212.0731,1.89,13.68,47.84626,-54.09684
2018-12-27 20:10:00+00:00,205.2181,2.24,13.44,47.84626,-54.09684
2018-12-27 20:20:00+00:00,203.8398,2.5,13.44,47.84626,-54.09684
2018-12-27 20:30:00+00:00,202.1881,2.58,13.37,47.84626,-54.09684
2018-12-27 20:40:00+00:00,197.0331,2.59,13.37,47.84626,-54.09684
2018-12-27 20:50:00+00:00,195.8514,2.6,13.37,47.84626,-54.09684
2018-12-27 21:00:00+00:00,199.2864,2.6,13.29,47.84626,-54.09684
2018-12-27 21:10:00+00:00,201.0031,2.6,13.13,47.84626,-54.09684
2018-12-27 21:20:00+00:00,201.7281,2.6,13.13,47.84626,-54.09684
2018-12-27 21:30:00+00:00,203.9114,2.6,13.13,47.84626,-54.09684
2018-12-27 21:40:00+00:00,207.2014,2.64,13.13,47.84626,-54.09684
2018-12-27 21:50:00+00:00,211.9848,2.69,13.13,47.84626,-54.09684
2018-12-27 22:00:00+00:00,217.4181,2.7,13.05,47.84626,-54.09684
2018-12-27 22:10:00+00:00,222.0314,2.79,12.97,47.84626,-54.09684
2018-12-27 22:20:00+00:00,224.3732,2.8,13.05,47.84626,-54.09684
2018-12-27 22:30:00+00:00,226.4781,2.8,13.05,47.84626,-54.09684
2018-12-27 22:40:00+00:00,229.3064,2.8,13.05,47.84626,-54.09684
2018-12-27 22:50:00+00:00,229.7614,2.8,13.05,47.84626,-54.09684
2018-12-27 23:00:00+00:00,228.8365,2.7,12.97,47.84626,-54.09684
2018-12-27 23:10:00+00:00,229.2697,2.72,12.89,47.84626,-54.09684
2018-12-27 23:20:00+00:00,229.4581,2.78,13.05,47.84626,-54.09684
2018-12-27 23:30:00+00:00,229.178,2.8,13.05,47.84626,-54.09684
2018-12-27 23:40:00+00:00,230.8781,2.7,13.05,47.84626,-54.09684
2018-12-27 23:50:00+00:00,233.2648,2.5,13.05,47.84626,-54.09684
